Location: Unspecified
(0.0000°N, 0.0000°E)
Time: 04:34:21
(UTC+02:00)

ASC 2 Rocket - Visible Passes

Search period start: 01 July 2016 00:00
Search period end: 11 July 2016 00:00
Orbit: 555 x 2346 km, 24.0° (Epoch: 30 June)

Date Brightness Start Highest point End Pass type
(mag) Time Alt. Az. Time Alt. Az. Time Alt. Az.
01 Jul 6.8 00:21:33 10° W 00:26:07 24° W 00:26:07 24° W visible
01 Jul 5.7 21:06:03 10° SW 21:20:25 63° SSE 21:30:09 18° E visible
01 Jul 5.5 23:12:15 10° WSW 23:25:04 66° NW 23:25:04 66° NW visible
02 Jul 5.5 22:03:26 10° WSW 22:17:58 87° NNW 22:24:06 36° ENE visible
03 Jul 6.5 00:11:13 10° W 00:19:02 32° WNW 00:19:02 32° WNW visible
03 Jul 5.8 20:55:11 10° WSW 21:09:47 75° SSE 21:22:19 10° ENE visible
03 Jul 5.8 23:01:39 10° WSW 23:15:12 56° NNW 23:18:06 47° NNE visible
04 Jul 7.3 01:11:29 10° WNW 01:13:02 13° WNW 01:13:02 13° WNW visible
04 Jul 5.6 07:30:14 10° NNW 07:32:37 15° NNE 07:34:58 10° ENE visible
04 Jul 5.8 21:52:44 10° WSW 22:07:18 74° NNW 22:17:11 18° NE visible
05 Jul 6.4 00:01:03 10° W 00:12:07 34° NNW 00:12:07 34° NNW visible
05 Jul 5.9 20:44:31 10° WSW 20:59:02 88° SSE 21:12:14 10° ENE visible
05 Jul 6.2 22:51:16 10° W 23:04:41 47° NNW 23:11:09 27° NNE visible
06 Jul 7.1 01:01:43 10° WNW 01:06:04 18° NW 01:06:04 18° NW visible
06 Jul 5.1 07:19:39 10° NNW 07:23:09 23° NNE 07:26:25 10° ENE visible
06 Jul 6.1 21:42:16 10° WSW 21:56:35 63° NNW 22:08:51 10° NE visible
06 Jul 6.6 23:51:04 10° WNW 00:02:11 30° NNW 00:05:00 27° N visible
07 Jul 5.7 06:14:00 10° NNW 06:17:03 16° NNE 06:19:44 10° NE visible
07 Jul 6.0 20:34:03 10° WSW 20:48:14 80° NNW 21:01:55 10° ENE visible
07 Jul 6.5 22:41:07 10° W 22:54:11 41° NNW 23:03:48 14° NE visible
08 Jul 7.0 00:51:58 10° WNW 00:58:42 19° NNW 00:58:42 19° NNW visible
08 Jul 6.1 05:10:50 13° NNE 05:10:50 13° NNE 05:13:02 10° NE visible
08 Jul 4.3 07:09:19 10° NW 07:13:41 38° NNE 07:17:29 10° E visible
08 Jul 6.4 21:32:02 10° W 21:45:54 53° NNW 21:58:30 10° NE visible
08 Jul 6.8 23:41:14 10° WNW 23:52:05 27° NNW 23:57:20 20° NNE visible
09 Jul 5.2 06:04:25 15° NNW 06:07:41 25° NNE 06:11:22 10° ENE visible
09 Jul 6.3 20:23:50 10° WSW 20:37:27 68° NNW 20:51:24 10° NE visible
09 Jul 6.8 22:31:12 10° W 22:43:47 36° NNW 22:54:44 10° NE visible
10 Jul 7.0 00:42:06 10° NW 00:50:21 19° NNW 00:50:39 19° N visible
10 Jul 6.0 05:03:11 17° NE 05:03:11 17° NE 05:05:09 10° ENE visible
10 Jul 3.4 06:59:06 10° WNW 07:04:12 65° NNE 07:08:17 10° ESE visible
10 Jul 6.7 21:22:03 10° W 21:35:18 45° NNW 21:48:00 10° NE visible
10 Jul 7.0 23:31:29 10° WNW 23:42:04 25° NNW 23:48:55 15° NNE visible
